Location: Freistadt
(48.5112°N, 14.5013°E)
Time: 06:03:45
(UTC+02:00)

CUBEBUG 2 - Pass Details

Date: 03 April 2023
Orbit: 577 x 686 km, 97.8° (Epoch: 29 May)

Event Time Altitude Azimuth Distance (km) Brightness Sun altitude
Rises 04:25:20 0° 7° (N) 3,067 ? -20.9°
Reaches altitude 10° 04:27:43 10° 359° (N) 2,140 ? -20.6°
Maximum altitude 04:32:01 38° 293° (WNW) 1,041 ? -20.0°
Enters shadow 04:32:31 36° 277° (W) 1,061 ? -19.9°
